• In Deutschland
  • Länderverzeichnis
  • Für 7 Tage
  • Wassertemperatur
  • Satellitenkarten
  • Wetterkarte
  • Widgets
  • user-avatar
    Anmelden

    Stündliche Wetter Stepanakert

    Heute, 29 März, Mittwoch

    Zeit Temperatur Niederschläge Wind Luftdruck Luftfeuchtigkeit
    00:00 +4°C° 0 mm 1 m/S 692 mmHg 77%
    01:00 +4°C° 0 mm 1 m/S 691 mmHg 78%
    02:00 +4°C° 0 mm 1 m/S 691 mmHg 79%
    03:00 +4°C° 0 mm 1 m/S 691 mmHg 79%
    04:00 +3°C° 0 mm 1 m/S 691 mmHg 79%
    05:00 +3°C° 0 mm 1 m/S 691 mmHg 79%
    06:00 +3°C° 0 mm 1 m/S 691 mmHg 79%
    07:00 +5°C° 0 mm 2 m/S 692 mmHg 68%
    08:00 +8°C° 0 mm 2 m/S 692 mmHg 58%
    09:00 +10°C° 0 mm 2 m/S 693 mmHg 47%
    10:00 +13°C° 0 mm 2 m/S 693 mmHg 45%
    11:00 +14°C° 0 mm 2 m/S 693 mmHg 42%
    12:00 +14°C° 0 mm 3 m/S 693 mmHg 39%
    13:00 +14°C° 0 mm 3 m/S 693 mmHg 39%
    14:00 +14°C° 0 mm 3 m/S 693 mmHg 39%
    15:00 +16°C° 0 mm 3 m/S 693 mmHg 39%
    16:00 +14°C° 0 mm 2 m/S 693 mmHg 46%
    17:00 +12°C° 0 mm 2 m/S 693 mmHg 53%
    18:00 +10°C° 0 mm 1 m/S 693 mmHg 61%
    19:00 +9°C° 0 mm 1 m/S 694 mmHg 66%
    20:00 +7°C° 0 mm 1 m/S 694 mmHg 70%
    21:00 +6°C° 0 mm 1 m/S 695 mmHg 75%
    22:00 +5°C° 0 mm 1 m/S 695 mmHg 78%
    23:00 +5°C° 0 mm 1 m/S 695 mmHg 81%

    Morgen, 30 März, Donnerstag

    Zeit Temperatur Niederschläge Wind Luftdruck Luftfeuchtigkeit
    00:00 +5°C° 0 mm 1 m/S 695 mmHg 84%
    01:00 +4°C° 0 mm 1 m/S 695 mmHg 86%
    02:00 +4°C° 0 mm 1 m/S 695 mmHg 87%
    03:00 +3°C° 0 mm 1 m/S 695 mmHg 89%
    04:00 +3°C° 0 mm 1 m/S 695 mmHg 89%
    05:00 +3°C° 0 mm 1 m/S 696 mmHg 89%
    06:00 +3°C° 0 mm 1 m/S 696 mmHg 89%
    07:00 +5°C° 0 mm 1 m/S 696 mmHg 79%
    08:00 +8°C° 0 mm 1 m/S 696 mmHg 69%
    09:00 +10°C° 0 mm 1 m/S 697 mmHg 60%
    10:00 +10°C° 0 mm 2 m/S 696 mmHg 56%
    11:00 +13°C° 0 mm 2 m/S 696 mmHg 52%
    12:00 +14°C° 0 mm 2 m/S 695 mmHg 48%
    13:00 +14°C° 0 mm 2 m/S 695 mmHg 48%
    14:00 +15°C° 0 mm 2 m/S 694 mmHg 48%
    15:00 +15°C° 0 mm 2 m/S 693 mmHg 49%
    16:00 +13°C° 0 mm 2 m/S 693 mmHg 57%
    17:00 +11°C° 0 mm 1 m/S 692 mmHg 66%
    18:00 +9°C° 0 mm 1 m/S 692 mmHg 74%
    19:00 +9°C° 0 mm 1 m/S 692 mmHg 76%
    20:00 +8°C° 0 mm 1 m/S 692 mmHg 78%
    21:00 +7°C° 0 mm 1 m/S 692 mmHg 79%
    22:00 +7°C° 0 mm 1 m/S 692 mmHg 77%
    23:00 +7°C° 0 mm 1 m/S 692 mmHg 75%

    übermorgen, 31 März, Freitag

    Zeit Temperatur Niederschläge Wind Luftdruck Luftfeuchtigkeit
    00:00 +6°C° 0 mm 2 m/S 692 mmHg 73%
    01:00 +5°C° 0 mm 2 m/S 692 mmHg 72%
    02:00 +5°C° 0 mm 2 m/S 692 mmHg 70%
    03:00 +5°C° 0 mm 2 m/S 692 mmHg 69%
    04:00 +5°C° 0 mm 2 m/S 692 mmHg 68%
    05:00 +5°C° 0 mm 2 m/S 692 mmHg 67%
    06:00 +6°C° 0 mm 1 m/S 692 mmHg 65%
    07:00 +9°C° 0 mm 1 m/S 693 mmHg 58%
    08:00 +11°C° 0 mm 1 m/S 693 mmHg 51%
    09:00 +14°C° 0 mm 1 m/S 694 mmHg 43%
    10:00 +15°C° 0 mm 2 m/S 694 mmHg 42%
    11:00 +16°C° 0 mm 2 m/S 693 mmHg 41%
    12:00 +17°C° 0 mm 3 m/S 693 mmHg 40%
    13:00 +16°C° 0,1 mm 3 m/S 693 mmHg 42%
    14:00 +15°C° 0,1 mm 4 m/S 693 mmHg 45%
    15:00 +15°C° 0,1 mm 4 m/S 693 mmHg 47%
    16:00 +13°C° 0,2 mm 4 m/S 693 mmHg 56%
    17:00 +11°C° 0,2 mm 4 m/S 693 mmHg 65%
    18:00 +8°C° 0,2 mm 5 m/S 693 mmHg 74%
    19:00 +7°C° 0,2 mm 4 m/S 693 mmHg 77%
    20:00 +6°C° 0,2 mm 4 m/S 694 mmHg 81%
    21:00 +5°C° 0,2 mm 4 m/S 694 mmHg 84%
    22:00 +5°C° 1,1 mm 4 m/S 695 mmHg 85%
    23:00 +4°C° 1,1 mm 4 m/S 695 mmHg 87%

    1 April, Samstag

    Zeit Temperatur Niederschläge Wind Luftdruck Luftfeuchtigkeit
    00:00 +3°C° 1,1 mm 4 m/S 695 mmHg 88%
    01:00 +3°C° 0,3 mm 4 m/S 695 mmHg 88%
    02:00 +1°C° 0,3 mm 4 m/S 694 mmHg 89%
    03:00 0°C° 0,3 mm 4 m/S 694 mmHg 89%
    04:00 +1°C° 0,3 mm 3 m/S 695 mmHg 89%
    05:00 +1°C° 0,3 mm 3 m/S 695 mmHg 89%
    06:00 +1°C° 0,3 mm 3 m/S 695 mmHg 89%
    07:00 +1°C° 0,5 mm 3 m/S 695 mmHg 88%
    08:00 +1°C° 0,5 mm 3 m/S 696 mmHg 87%
    09:00 +2°C° 0,5 mm 3 m/S 696 mmHg 86%
    10:00 +2°C° 0,1 mm 3 m/S 696 mmHg 84%
    11:00 +3°C° 0,1 mm 3 m/S 695 mmHg 82%
    12:00 +4°C° 0,1 mm 3 m/S 695 mmHg 80%
    13:00 +4°C° 0 mm 3 m/S 695 mmHg 79%
    14:00 +5°C° 0 mm 3 m/S 694 mmHg 78%
    15:00 +5°C° 0 mm 3 m/S 694 mmHg 77%
    16:00 +5°C° 0 mm 2 m/S 693 mmHg 80%
    17:00 +5°C° 0 mm 2 m/S 693 mmHg 84%
    18:00 +4°C° 0 mm 2 m/S 693 mmHg 87%
    19:00 +4°C° 0 mm 1 m/S 693 mmHg 89%
    20:00 +4°C° 0 mm 1 m/S 693 mmHg 91%
    21:00 +3°C° 0 mm 1 m/S 693 mmHg 93%
    22:00 +3°C° 0,1 mm 1 m/S 693 mmHg 93%
    23:00 +3°C° 0,1 mm 1 m/S 693 mmHg 93%

    2 April, Sonntag

    Zeit Temperatur Niederschläge Wind Luftdruck Luftfeuchtigkeit
    00:00 +3°C° 0,1 mm 1 m/S 693 mmHg 92%
    01:00 +3°C° 0,4 mm 1 m/S 692 mmHg 92%
    02:00 +2°C° 0,4 mm 0 m/S 692 mmHg 92%
    03:00 +2°C° 0,4 mm 0 m/S 692 mmHg 92%
    04:00 +2°C° 0,3 mm 0 m/S 692 mmHg 92%
    05:00 +2°C° 0,3 mm 0 m/S 693 mmHg 93%
    06:00 +2°C° 0,3 mm 0 m/S 693 mmHg 93%
    07:00 +4°C° 0,3 mm 1 m/S 693 mmHg 90%
    08:00 +5°C° 0,3 mm 1 m/S 694 mmHg 86%
    09:00 +6°C° 0,3 mm 1 m/S 694 mmHg 82%
    10:00 +7°C° 0,3 mm 1 m/S 694 mmHg 80%
    11:00 +6°C° 0,3 mm 2 m/S 694 mmHg 79%
    12:00 +7°C° 0,3 mm 2 m/S 694 mmHg 77%
    13:00 +7°C° 0,3 mm 2 m/S 694 mmHg 77%
    14:00 +8°C° 0,3 mm 2 m/S 694 mmHg 76%
    15:00 +8°C° 0,3 mm 2 m/S 694 mmHg 76%
    16:00 +7°C° 0,2 mm 2 m/S 694 mmHg 80%
    17:00 +6°C° 0,2 mm 2 m/S 694 mmHg 84%
    18:00 +5°C° 0,2 mm 2 m/S 694 mmHg 88%
    19:00 +5°C° 0,2 mm 2 m/S 695 mmHg 89%
    20:00 +4°C° 0,2 mm 2 m/S 695 mmHg 91%
    21:00 +5°C° 0,2 mm 1 m/S 695 mmHg 92%
    22:00 +4°C° 0,2 mm 1 m/S 695 mmHg 93%
    23:00 +4°C° 0,2 mm 1 m/S 695 mmHg 93%

    3 April, Montag

    Zeit Temperatur Niederschläge Wind Luftdruck Luftfeuchtigkeit
    00:00 +4°C° 0,2 mm 1 m/S 695 mmHg 94%
    01:00 +3°C° 0,1 mm 1 m/S 695 mmHg 94%
    02:00 +3°C° 0,1 mm 1 m/S 695 mmHg 94%
    03:00 +2°C° 0,1 mm 0 m/S 696 mmHg 94%
    04:00 +2°C° 0,1 mm 0 m/S 696 mmHg 94%
    05:00 +2°C° 0,1 mm 0 m/S 696 mmHg 94%
    06:00 +2°C° 0,1 mm 0 m/S 696 mmHg 94%
    07:00 +4°C° 0,1 mm 1 m/S 697 mmHg 88%
    08:00 +6°C° 0,1 mm 1 m/S 697 mmHg 83%
    09:00 +7°C° 0,1 mm 1 m/S 697 mmHg 77%
    10:00 +7°C° 0,1 mm 2 m/S 697 mmHg 74%
    11:00 +8°C° 0,1 mm 2 m/S 697 mmHg 71%
    12:00 +9°C° 0,1 mm 2 m/S 697 mmHg 68%
    13:00 +9°C° 0 mm 2 m/S 697 mmHg 68%
    14:00 +9°C° 0 mm 2 m/S 697 mmHg 68%
    15:00 +9°C° 0 mm 2 m/S 696 mmHg 67%
    16:00 +8°C° 0 mm 2 m/S 696 mmHg 72%
    17:00 +7°C° 0 mm 2 m/S 696 mmHg 77%
    18:00 +7°C° 0 mm 1 m/S 696 mmHg 82%
    19:00 +6°C° 0 mm 1 m/S 696 mmHg 85%
    20:00 +5°C° 0 mm 1 m/S 697 mmHg 88%
    21:00 +3°C° 0 mm 1 m/S 697 mmHg 90%
    22:00 +3°C° 0 mm 1 m/S 697 mmHg 89%
    23:00 +3°C° 0 mm 1 m/S 697 mmHg 88%
    Mehr zeigen